Location: *
(50.5492°N, 7.7469°E)
Time: 06:59:52
(UTC+00:00)

STARLINK-27 - Pass Details

Date: 21 October 2019
Orbit: 548 x 551 km, 53.0° (Epoch: 11 November)

Event Time Altitude Azimuth Distance (km) Brightness Sun altitude
Rises 17:55:35 0° 276° (W) 2,718 9.1 -15.0°
Reaches altitude 10° 17:57:50 10° 280° (W) 1,825 7.6 -15.3°
Maximum altitude 18:01:56 60° 2° (N) 632 3.9 -16.0°
Enters shadow 18:03:47 30° 71° (ENE) 993 4.4 -16.3°
